Regional Weather Roundup
Issued by NWS New Orleans/Baton Rouge, LA

Home | Current Version | Previous Version | Text Only | Print | Product List | Glossary On
Versions: 1 2 3 4 5 6 7 8 9 10 11 12 13 14 15 16 17 18 19 20 21 22 23 24 25 26 27 28 29 30 31 32 33 34 35 36 37 38 39 40 41 42 43 44 45 46 47 48 49 50
320
ASUS44 KLIX 010811
RWRLIX
NEW ORLEANS REGIONAL WEATHER ROUNDUP
NATIONAL WEATHER SERVICE NEW ORLEANS LA
300 AM CDT WED JUN 01 2016

NOTE: "FAIR" INDICATES FEW OR NO CLOUDS BELOW 12,000 FEET WITH NO
      SIGNIFICANT WEATHER AND/OR OBSTRUCTIONS TO VISIBILITY.
      SKY/WX - SKY CONDITION AND SIGNIFICANT WEATHER.
      TMP - AIR TEMPERATURE.     DP    - DEWPOINT TEMPERATURE.
      RH  - RELATIVE HUMIDITY.   PRES  - PRESSURE.
      HI  - HEAT INDEX.          WCI   - WIND CHILL INDEX.

*  THESE STATIONS ARE NOT NWS OR FAA STATIONS AND ARE NOT UNDER
   NWS QUALITY CONTROL.

LAZ038-040-048-061>063-065>067-069-010900-
SOUTHEAST LOUISIANA

CITY           SKY/WX    TMP DP  RH WIND       PRES   REMARKS
N.O. AUDUBON   NOT AVBL
N.O. INTL ARPT PTCLDY    74  69  85 SE3       29.92F
N.O. LAKEFRONT CLEAR     78  70  76 SW6       29.92F
N.O. DOWNTOWN*   N/A     77  71  82 S3        29.93F
RESERVE*       CLOUDY    76  72  86 CALM      29.92F
SLIDELL        PTCLDY    71  69  93 CALM      29.92F
BATON ROUGE    CLEAR     70  68  93 CALM      29.91F
BOOTHVILLE     CLEAR     75  70  84 SE3       29.94S
BELLE CHASSE   CLEAR     70  68  93 NW3       29.92F
BOGALUSA*        N/A     71  68  89 CALM      29.94S
GALLIANO*      PTSUNNY   67  65  94 CALM      29.92F
NEW ROADS*       N/A     69  69  98 NE3       29.91F
GONZALES*        N/A     70  70 100 CALM      29.91S
HAMMOND*       CLEAR     70  66  88 CALM      29.91F
HOUMA*         CLEAR     70  68  94 CALM      29.92S
PORT FOURCHON* PTSUNNY   79  70  73 CALM      29.92F

$$

MSZ070-080>082-010900-
SOUTHERN MISSISSIPPI

CITY           SKY/WX    TMP DP  RH WIND       PRES   REMARKS
MCCOMB         CLEAR     69  66  90 CALM      29.92F
GULFPORT       CLEAR     72  69  90 CALM      29.92S
BILOXI         CLEAR     76  73  90 CALM      29.92S
PASCAGOULA     CLEAR     67  67 100 CALM      29.92F FOG

$$

COASTAL OBSERVATIONS
LAKE AND NEARSHORE STATIONS

STATION/POSITION TIME  TEMP    WIND        PRES    WAVE
                       AIR SEA DIR/SP/G            HT/PER
                 (UTC) (F)     (DEG/KT/KT) (MB)    (FT/S)
PASCAGOULA       0700   81     260/  6/  9 1012.9
WAVELAND YACHT   0700   76 83  250/  4/  5 1013.2
GRAND ISLE       0700   80 85  230/  3/  5 1013.5
SOUTHWEST PASS   0712          190/  4/  5   N/A
NEW CANAL        0700   77 82  220/  3/  5 1012.9
SHELL BEACH      0700   79 85  240/  4/  4 1013.7

OFFSHORE STATIONS

STATION/POSITION TIME  TEMP    WIND        PRES    WAVE
                       AIR SEA DIR/SP/G            HT/PER
                 (UTC) (F)     (DEG/KT/KT) (MB)    (FT/S)
64 S DAUPHIN ISL 0700   80 81  180/  4/  6 1013.8

$$





USA.gov is the U.S. government's official web portal to all federal, state and local government web resources and services.